To modify the report, make a selection from each column below and re-run.

Report Type Graduation Filter Grade Filter Gender Distance

(Grade filter for indiv report.)


Course PR Report: Mt. Sac

The report below currently displays:

  • Individual PR's
  • Grads & Current Runners
  • All Grades
  • Girls
  • 2.93 miles
  • Grads & Current Runners
All Time Rank Runner Name Grad Year Time Pace PR Date PR Event # of
Races
Graph full race
history on course
(pick up to 15)
1 Sydney Morrow 2022 18:14 6:13 10/25/19 Mt. Sac Invitational 2
2 Helena Van Loan 2014 18:24 6:17 11/19/11 Southern Section Finals 8
3 Anika Renken 2013 19:08 6:32 10/19/12 Mt. Sac Invitational 7
4 Claire Ryan 2006 19:14 6:34 11/19/05 Southern Section Finals 3
5 Emily Ye 2016 19:29 6:39 10/23/15 Mt. Sac Invitational 8
6 Brooklyn Robinson 2021 19:32 6:40 10/20/17 Mt. Sac Invitational 1
7 Catherine Messana 2009 19:36 6:41 11/11/06 Southern Section Prelims 3
8 Chloe Fata 2008 19:37 6:42 11/12/05 Southern Section Prelims 8
9 Cece Zhu 2012 19:43 6:44 10/21/11 Mt. Sac Invitational 4
10 Kaylee Anderson 2012 19:49 6:46 11/19/11 Southern Section Finals 6
11 Mai Koyama 2022 19:50 6:46 10/19/18 Mt. Sac Invitational 2
12 Elizabeth Bock 2019 19:56 6:48 10/19/18 Mt. Sac Invitational 5
13 Maddy Engelsman 2018 20:01 6:50 10/20/17 Mt. Sac Invitational 4
14 Bailey Wu 2018 20:05 6:51 10/20/17 Mt. Sac Invitational 3
15 Maaike Wielenga 2016 20:12 6:54 11/16/13 Southern Section Prelims 8
15 Lindsay Michels 2021 20:12 6:54 10/25/19 Mt. Sac Invitational 3
17 Fiona Bock 2016 20:14 6:54 11/16/13 Southern Section Prelims 6
18 Catheri Messana 2009 20:21 6:57 10/20/06 Mt. Sac Invitational 3
19 Jessica Cervantes 2007 20:24 6:58 11/11/06 Southern Section Prelims 3
20 Remeny White 2014 20:28 6:59 11/19/11 Southern Section Finals 6
21 Kayle Anderson 2012 20:29 6:59 10/23/09 Mt. Sac Invitational 2
22 Andrea Ramirez 2011 20:30 7:00 10/23/10 Mt. Sac Invitational 2
23 Taci Chin-robinson 2012 20:31 7:00 11/14/09 Southern Section Prelims 3
23 Robin Laird 2010 20:31 7:00 10/20/06 Mt. Sac Invitational 2
25 Sonja Fenske 2007 20:39 7:03 11/19/05 Southern Section Finals 5
26 Lindsey Calva 2019 20:44 7:05 10/20/17 Mt. Sac Invitational 3
26 Chin-robinson 2012 20:44 7:05 10/23/09 Mt. Sac Invitational 1
28 Nora Devita 2011 20:47 7:06 11/14/09 Southern Section Prelims 4
29 Liz Leonard 2007 20:51 7:07 11/19/05 Southern Section Finals 4
30 Jessic Cervantes 2007 20:54 7:08 10/20/06 Mt. Sac Invitational 3
31 Laura Lussier 2012 20:56 7:09 11/19/11 Southern Section Finals 5
31 Elizabeth Leonard 2007 20:56 7:09 11/11/06 Southern Section Prelims 1
33 Jessica Hitchcock 2013 20:59 7:10 11/10/12 Southern Section Prelims 7
34 Nicole Endacott 2011 21:01 7:10 11/14/09 Southern Section Prelims 5
35 Aimee Fata 2010 21:06 7:12 11/14/09 Southern Section Prelims 5
36 Stacy Lee 2011 21:12 7:14 11/10/07 Southern Section Prelims 2
37 Madeline Chin 2013 21:16 7:15 10/23/10 Mt. Sac Invitational 4
37 A. J. Ramirez 2011 21:16 7:15 11/15/08 Southern Section Prelims 1
37 Kerrigan Riley 2022 21:16 7:15 10/25/19 Mt. Sac Invitational 1
40 Alexa Esler 2016 21:17 7:16 10/25/13 Mt. Sac Invitational 2
41 Amelia Jarolim 2021 21:18 7:16 10/25/19 Mt. Sac Invitational 3
42 Belinda Yen 2008 21:19 7:17 11/19/05 Southern Section Finals 4
43 Katherine Conte 2017 21:20 7:17 11/15/14 Southern Section Prelims 2
43 Elizabet Leonard 2007 21:20 7:17 10/20/06 Mt. Sac Invitational 1
45 Briana Nunez 2016 21:21 7:17 10/23/15 Mt. Sac Invitational 6
46 Amy Choi 2015 21:22 7:18 11/10/12 Southern Section Prelims 3
47 Caroline Liu 2018 21:25 7:19 10/20/17 Mt. Sac Invitational 4
47 Jocelyn Lee 2010 21:25 7:19 10/20/06 Mt. Sac Invitational 3
49 Melina Chavez 2017 21:29 7:20 11/16/13 Southern Section Prelims 3
49 Paige Ostlund 2009 21:29 7:20 10/24/08 Mt. Sac Invitational 4
51 Sara Jan 2011 21:31 7:21 10/23/10 Mt. Sac Invitational 1
52 Jade Roman 2011 21:34 7:22 11/15/08 Southern Section Prelims 3
53 Jessic Hitchcock 2013 21:38 7:23 10/23/09 Mt. Sac Invitational 1
54 Celeste Amaya 2018 21:42 7:24 10/20/17 Mt. Sac Invitational 1
54 Ariel White 2007 21:42 7:24 10/24/04 Mt. Sac Invitational 2
56 Paigue Oustlund 2009 21:46 7:26 11/11/06 Southern Section Prelims 1
57 Caitlin Enright 2007 21:49 7:27 11/11/06 Southern Section Prelims 3
58 Selena Renwick 2017 21:54 7:28 11/15/14 Southern Section Prelims 4
59 Amie Weber 2005 21:56 7:29 10/24/04 Mt. Sac Invitational 1
60 Abigail Shulman 2015 21:58 7:30 10/19/12 Mt. Sac Invitational 3
61 Tyler Brown 2011 21:59 7:30 11/10/07 Southern Section Prelims 2
62 Evelyn Beadle 2016 22:03 7:32 11/16/13 Southern Section Prelims 2
63 Sara Jan 2012 22:09 7:34 10/23/09 Mt. Sac Invitational 3
64 Lilian Zhu 2022 22:16 7:36 10/19/18 Mt. Sac Invitational 2
65 Lily Round 2016 22:23 7:38 10/25/13 Mt. Sac Invitational 3
66 Ke Shao 2013 22:28 7:40 10/23/10 Mt. Sac Invitational 2
67 Luyang Zhang 2021 22:30 7:41 10/25/19 Mt. Sac Invitational 2
68 Quyen Ballagh 2020 22:32 7:41 10/20/17 Mt. Sac Invitational 2
69 Zoe Detzel 2012 22:37 7:43 10/21/11 Mt. Sac Invitational 1
69 Miranda Liu 2022 22:37 7:43 10/25/19 Mt. Sac Invitational 2
71 Maia Thomas 2016 22:39.6 7:44 10/24/14 Mt. Sac Invitational 1
72 Cindy Chan 2012 22:40 7:44 10/23/10 Mt. Sac Invitational 2
73 Kei Shao 2013 22:42 7:45 10/21/11 Mt. Sac Invitational 1
74 Isabel Barbera 2017 22:49 7:47 10/25/13 Mt. Sac Invitational 1
75 Camill Endacott 2012 22:50 7:48 10/23/09 Mt. Sac Invitational 1
76 Amber Gonzalez Pacheco 2020 22:55 7:49 10/20/17 Mt. Sac Invitational 4
76 Kathy Lui 2014 22:55 7:49 10/25/13 Mt. Sac Invitational 4
78 Eunice Im 2007 23:02 7:52 10/20/06 Mt. Sac Invitational 3
79 Kaile Fernandes 2023 23:08 7:54 10/25/19 Mt. Sac Invitational 1
80 Abby Shulman 2015 23:08.1 7:54 10/24/14 Mt. Sac Invitational 1
81 Amber Laird 2013 23:09 7:54 10/23/10 Mt. Sac Invitational 3
81 Rachel Paik 2008 23:09 7:54 10/20/06 Mt. Sac Invitational 1
83 Kelly Wu 2021 23:11 7:55 10/20/17 Mt. Sac Invitational 1
83 Jessica Chung 2015 23:11 7:55 10/25/13 Mt. Sac Invitational 3
85 Marion Wood 2015 23:21.3 7:58 10/24/14 Mt. Sac Invitational 1
86 Alexis Velasco 2014 23:29 8:01 10/19/12 Mt. Sac Invitational 1
87 Maggie Liu 2015 23:36 8:03 10/21/11 Mt. Sac Invitational 3
88 Kate Feldman 2010 23:38 8:04 11/10/07 Southern Section Prelims 1
89 Alyssa Mohamadzade 2016 23:39 8:04 10/25/13 Mt. Sac Invitational 1
89 Claire Foster 2015 23:39 8:04 10/21/11 Mt. Sac Invitational 1
89 Ashley Moon 2013 23:39 8:04 10/23/10 Mt. Sac Invitational 2
92 Kira Gabriel 2015 23:49 8:08 10/21/11 Mt. Sac Invitational 2
93 Stephanie Warren 2015 23:55 8:10 10/19/12 Mt. Sac Invitational 2
94 Lauren Jones 2021 23:58 8:11 10/20/17 Mt. Sac Invitational 1
94 Alison Yamada 2007 23:58 8:11 10/21/05 Mt. Sac Invitational 1
96 Caroline Liebe 2020 23:59 8:11 10/20/17 Mt. Sac Invitational 2
97 Daniella Lat 2023 24:03 8:12 10/25/19 Mt. Sac Invitational 1
98 Sophia Arriola 2014 24:04 8:13 10/23/10 Mt. Sac Invitational 1
99 Sooji Hong 2012 24:05 8:13 10/23/09 Mt. Sac Invitational 1
100 Natali Lelieur 2018 24:06 8:14 10/20/17 Mt. Sac Invitational 3
100 Michelle Chu 2006 24:06 8:14 10/24/04 Mt. Sac Invitational 1
102 Rebecca Phan 2014 24:09 8:15 10/19/12 Mt. Sac Invitational 2
103 Lia Lohr 2012 24:10 8:15 10/23/10 Mt. Sac Invitational 4
104 Margaret Rose 2005 24:12 8:16 10/24/04 Mt. Sac Invitational 1
105 Marsha Kennedy 2007 24:14 8:16 10/24/04 Mt. Sac Invitational 2
106 A.j. Ramirez 2011 24:17 8:17 10/19/07 Mt. Sac Invitational 1
107 Priscilla Lee 2010 24:18 8:18 10/20/06 Mt. Sac Invitational 1
108 Ann Lloyd Jones 2009 24:25 8:20 10/21/05 Mt. Sac Invitational 1
109 Olivia Chiu 2016 24:32 8:22 10/25/13 Mt. Sac Invitational 2
110 Kate Feldmann 2012 24:33 8:23 10/23/09 Mt. Sac Invitational 1
111 Linda Bernal 2007 24:37 8:24 10/24/04 Mt. Sac Invitational 2
112 Kate Feldmann 2010 24:38 8:24 10/19/07 Mt. Sac Invitational 1
113 Misha Holtz 2014 24:41 8:25 10/21/11 Mt. Sac Invitational 1
114 Allison Yu 2006 24:43 8:26 10/21/05 Mt. Sac Invitational 1
115 Tei Park 2017 24:51 8:29 10/25/13 Mt. Sac Invitational 1
116 Jessica Santos 2013 24:53 8:30 10/19/12 Mt. Sac Invitational 1
117 Alys Mohamadzaden 2016 24:54 8:30 10/19/12 Mt. Sac Invitational 1
118 Andrea Seet 2014 25:03 8:33 10/21/11 Mt. Sac Invitational 1
119 Mel Christensen 2009 25:05 8:34 10/21/05 Mt. Sac Invitational 1
120 Kristina Fenske 2007 25:10 8:35 10/24/04 Mt. Sac Invitational 1
121 Emily Gin 2017 25:14 8:37 10/25/13 Mt. Sac Invitational 2
122 Amber Clark 2007 25:16 8:37 10/21/05 Mt. Sac Invitational 2
123 Sabrina Sanchez 2014 25:19 8:38 10/23/10 Mt. Sac Invitational 1
124 Karen Zhu 2016 25:21 8:39 10/19/12 Mt. Sac Invitational 1
125 Diana Perea 2022 25:22 8:39 10/19/18 Mt. Sac Invitational 2
125 Catalina Lee 2011 25:22 8:39 10/24/08 Mt. Sac Invitational 1
127 Tiffany Show 2012 25:24 8:40 10/21/11 Mt. Sac Invitational 1
128 Mallor Downing 2011 25:26 8:41 10/19/07 Mt. Sac Invitational 2
129 Tara Atkinson 2008 25:27 8:41 10/24/04 Mt. Sac Invitational 1
130 Gabriela Rodriguez 2022 25:29 8:42 10/19/18 Mt. Sac Invitational 1
130 Kevin Lui 2009 25:29 8:42 10/19/07 Mt. Sac Invitational 1
130 Maya Gonzalez-Pacheco 2023 25:29 8:42 10/25/19 Mt. Sac Invitational 1
133 Sarah Kang 2022 25:30 8:42 10/19/18 Mt. Sac Invitational 2
134 Katherine Ngan 2015 25:35 8:44 10/21/11 Mt. Sac Invitational 2
135 Vesta Javaheri 2013 25:42 8:46 10/23/10 Mt. Sac Invitational 2
136 Alicia Wilgoren 2023 25:48 8:48 10/25/19 Mt. Sac Invitational 1
137 Sydney Lagarce 2023 25:49 8:49 10/25/19 Mt. Sac Invitational 1
138 Kate Lee 2020 25:54 8:50 10/21/16 Mt. Sac Invitational 1
138 Alyssa Yamane 2006 25:54 8:50 10/24/04 Mt. Sac Invitational 1
140 Mackenzie Chang 2013 25:56 8:51 10/23/10 Mt. Sac Invitational 2
140 Mackenzi Chang 2013 25:56 8:51 10/23/09 Mt. Sac Invitational 1
142 Destiny Rivera 2020 25:57 8:51 10/19/18 Mt. Sac Invitational 1
143 Helen Lopez 2007 25:59 8:52 10/20/06 Mt. Sac Invitational 1
144 Katherine Uriarte 2015 26:04 8:54 10/19/12 Mt. Sac Invitational 2
145 Dana Lin 2020 26:09 8:55 10/21/16 Mt. Sac Invitational 1
146 Franny Cross 2018 26:15 8:58 10/20/17 Mt. Sac Invitational 2
147 Alana Ballagh 2018 26:17 8:58 10/20/17 Mt. Sac Invitational 2
148 Kathele Bennett 2008 26:25 9:01 10/19/07 Mt. Sac Invitational 1
149 Susan Rodriguez 2018 26:31 9:03 10/20/17 Mt. Sac Invitational 1
150 Melissa Hom 2007 26:32 9:03 10/24/04 Mt. Sac Invitational 1
151 Grace Shim 2006 26:33 9:04 10/24/04 Mt. Sac Invitational 1
152 Elaine Hong 2012 26:37 9:05 10/21/11 Mt. Sac Invitational 1
153 Laura Ho 2009 26:40 9:06 10/21/05 Mt. Sac Invitational 1
154 Liz Baroi 2010 26:44 9:07 10/20/06 Mt. Sac Invitational 1
155 Yidi Su 2006 26:45 9:08 10/21/05 Mt. Sac Invitational 2
156 Briana Krajewski 2009 26:50 9:09 10/21/05 Mt. Sac Invitational 2
157 Cameron Chang 2017 26:51 9:10 10/25/13 Mt. Sac Invitational 2
157 T Chin Robinson 2012 26:51 9:10 10/24/08 Mt. Sac Invitational 1
159 Camill Endacott 2011 26:53 9:11 10/19/07 Mt. Sac Invitational 1
160 Christa Palige 2010 26:56 9:12 10/19/07 Mt. Sac Invitational 2
161 Samanth Batman 2006 27:12 9:17 10/24/04 Mt. Sac Invitational 1
162 Diana Kim 2012 27:14 9:18 10/23/10 Mt. Sac Invitational 1
162 Ellen Chow 2006 27:14 9:18 10/24/04 Mt. Sac Invitational 2
164 Jackie Takarabe 2019 27:17 9:19 10/21/16 Mt. Sac Invitational 1
165 Lauren Sharkey 2018 27:20 9:20 10/21/16 Mt. Sac Invitational 2
166 Katelyn Moreno 2010 27:24 9:21 10/24/08 Mt. Sac Invitational 1
167 Tru Pierone 2015 27:35 9:25 10/19/12 Mt. Sac Invitational 1
168 Sheila Kendall 2010 27:37 9:26 10/24/08 Mt. Sac Invitational 1
169 Ariadne Lyon 2011 27:43 9:28 10/19/07 Mt. Sac Invitational 2
170 Christina Yu 2005 27:48 9:29 10/24/04 Mt. Sac Invitational 1
171 Clarissa Paik 2012 27:52 9:31 10/24/08 Mt. Sac Invitational 1
172 Priscilla Hur 2013 27:53 9:31 10/21/11 Mt. Sac Invitational 2
173 Erica Barraza 2009 27:55 9:32 10/20/06 Mt. Sac Invitational 1
174 Arianne Jong 2006 28:06 9:35 10/21/05 Mt. Sac Invitational 1
175 Monica Amini 2011 28:10 9:37 10/24/08 Mt. Sac Invitational 1
176 Virginia Wei 2006 28:21 9:41 10/21/05 Mt. Sac Invitational 1
177 Susan Oh 2008 28:23 9:41 10/20/06 Mt. Sac Invitational 1
178 Helena Fu 2018 28:25 9:42 10/21/16 Mt. Sac Invitational 1
178 Erica Ehrlich 2010 28:25 9:42 10/20/06 Mt. Sac Invitational 1
180 Christine Roh 2016 28:30 9:44 10/19/12 Mt. Sac Invitational 1
181 Lily Dorn 2012 28:33 9:45 10/23/09 Mt. Sac Invitational 1
181 Lili Dorn 2011 28:33 9:45 10/19/07 Mt. Sac Invitational 1
183 Rebecca Li 2008 28:35 9:45 10/21/05 Mt. Sac Invitational 1
184 Maggie Ching 2008 28:55 9:52 10/21/05 Mt. Sac Invitational 1
185 Carrie Tan 2006 28:58 9:53 10/24/04 Mt. Sac Invitational 1
186 Kathlee Bennett 2008 29:00 9:54 10/20/06 Mt. Sac Invitational 1
187 Patricia Carrillo 2011 29:21 10:01 10/24/08 Mt. Sac Invitational 1
188 Hannah Sanders 2015 29:26 10:03 10/19/12 Mt. Sac Invitational 1
189 Victoria Limon 2015 29:49 10:11 10/21/11 Mt. Sac Invitational 1
190 June Kim 2013 29:57 10:13 10/21/11 Mt. Sac Invitational 1
191 Keren Im 2012 31:00 10:35 10/23/09 Mt. Sac Invitational 1
All Time Rank Runner Name Grad Year Time Pace PR Date PR Event # of
Races
Graph full race
history on course
(pick up to 7)

Note: All columns are sortable by clicking on the column heading.